KF4PPJ Weather Reports


time (UTC)temp
C
wind
direction
speed
KPH
gust
KPH
rain 1hr
cm
rain 24hr
cm
rain mn
cm
humidity
%
barometer
mb
20260831021116 18 140 3.2 3.2 0.00 0.00 0.00 64 1020.3
20260831020612 18 156 0.0 1.6 0.00 0.00 0.00 63 1020.6
20260831015557 19 137 1.6 3.2 0.00 0.00 0.00 62 1020.7
20260831015056 20 151 0.0 0.0 0.00 0.00 0.00 60 1020.4
20260831014552 20 147 1.6 3.2 0.00 0.00 0.00 56 1020.7
20260831014048 20 164 1.6 3.2 0.00 0.00 0.00 55 1020.6
20260831013544 20 186 3.2 9.7 0.00 0.00 0.00 51 1020.7
20260831013043 20 166 1.6 3.2 0.00 0.00 0.00 52 1020.5
20260831012538 20 185 3.2 4.8 0.00 0.00 0.00 51 1020.7
20260831012033 20 166 6.4 12.9 0.00 0.00 0.00 51 1020.7
20260831011532 20 203 6.4 8.0 0.00 0.00 0.00 50 1020.9
20260831011028 20 216 4.8 8.0 0.00 0.00 0.00 49 1020.9
20260831010523 21 197 6.4 9.7 0.00 0.00 0.00 49 1020.8
20260831010019 21 202 4.8 12.9 0.00 0.00 0.00 49 1020.8
20260831005519 21 198 1.6 8.0 0.00 0.00 0.00 48 1020.8
20260831005019 22 213 6.4 8.0 0.00 0.00 0.00 47 1020.9
20260831004515 22 179 4.8 8.0 0.00 0.00 0.00 47 1020.7
20260831004010 22 247 4.8 4.8 0.00 0.00 0.00 46 1020.9
20260831003507 22 209 1.6 4.8 0.00 0.00 0.00 46 1021.0
20260831003002 22 181 3.2 4.8 0.00 0.00 0.00 45 1020.7
20260831002500 22 152 1.6 4.8 0.00 0.00 0.00 48 1021.0
20260831001955 22 162 3.2 8.0 0.00 0.00 0.00 47 1021.2
20260831001451 21 220 4.8 8.0 0.00 0.00 0.00 48 1021.1
20260831000948 21 203 1.6 9.7 0.00 0.00 0.00 48 1021.2
20260831000443 22 232 6.4 11.3 0.00 0.00 0.00 47 1021.2
20260830235941 22 239 6.4 11.3 0.00 0.00 0.00 46 1021.5
20260830235437 22 205 4.8 8.0 0.00 0.00 0.00 46 1021.3
20260830234932 22 246 6.4 8.0 0.00 0.00 0.00 46 1021.3
20260830234427 22 212 4.8 12.9 0.00 0.00 0.00 49 1021.4
20260830233922 22 181 4.8 9.7 0.00 0.00 0.00 49 1021.4
20260830233418 22 185 8.0 11.3 0.00 0.00 0.00 48 1021.4
20260830232913 22 188 8.0 11.3 0.00 0.00 0.00 51 1021.5
20260830232409 22 222 6.4 8.0 0.00 0.00 0.00 51 1021.6
20260830231906 22 201 3.2 11.3 0.00 0.00 0.00 52 1021.4
20260830231400 21 172 4.8 11.3 0.00 0.00 0.00 54 1021.6
20260830230900 21 172 4.8 8.0 0.00 0.00 0.00 53 1021.5
20260830230355 21 190 4.8 8.0 0.00 0.00 0.00 52 1021.6
20260830225854 21 149 4.8 11.3 0.00 0.00 0.00 53 1021.7
20260830225350 21 174 1.6 4.8 0.00 0.00 0.00 51 1021.6
20260830224845 21 215 4.8 8.0 0.00 0.00 0.00 52 1021.8
20260830224344 22 215 3.2 8.0 0.00 0.00 0.00 51 1021.8
20260830223841 21 160 0.0 8.0 0.00 0.00 0.00 54 1022.0
20260830223337 21 190 4.8 4.8 0.00 0.00 0.00 56 1021.9
20260830222836 20 175 8.0 9.7 0.00 0.00 0.00 56 1022.0
20260830222332 20 156 6.4 11.3 0.00 0.00 0.00 57 1022.0
20260830221827 20 185 8.0 12.9 0.00 0.00 0.00 56 1022.2
20260830221324 21 192 4.8 8.0 0.00 0.00 0.00 55 1022.2
20260830220819 20 213 8.0 9.7 0.00 0.00 0.00 55 1022.1
20260830220318 21 223 6.4 12.9 0.00 0.00 0.00 54 1022.2
20260830215816 21 196 4.8 9.7 0.00 0.00 0.00 53 1022.1
20260830215311 20 171 4.8 8.0 0.00 0.00 0.00 55 1022.3
20260830214806 20 242 8.0 11.3 0.00 0.00 0.00 55 1022.3
20260830214301 20 188 9.7 12.9 0.00 0.00 0.00 55 1022.3
20260830213801 20 213 4.8 8.0 0.00 0.00 0.00 56 1022.4
20260830213255 20 254 11.3 12.9 0.00 0.00 0.00 56 1022.2
20260830212752 20 269 8.0 9.7 0.00 0.00 0.00 58 1022.7
20260830212247 20 194 8.0 11.3 0.00 0.00 0.00 59 1022.5
20260830211746 20 224 9.7 11.3 0.00 0.00 0.00 59 1022.8
20260830211246 20 202 6.4 11.3 0.00 0.00 0.00 59 1022.9
20260830210742 19 143 6.4 9.7 0.00 0.00 0.00 60 1022.6
20260830210241 19 85 4.8 11.3 0.00 0.00 0.00 60 1022.9
20260830205738 20 211 8.0 14.5 0.00 0.00 0.00 59 1022.8
20260830205233 19 191 3.2 3.2 0.00 0.00 0.00 62 1022.9
20260830204729 19 184 4.8 9.7 0.00 0.00 0.00 62 1022.9
20260830204227 19 204 4.8 11.3 0.00 0.00 0.00 63 1022.9
20260830203723 18 206 4.8 9.7 0.00 0.00 0.00 64 1022.9
20260830203218 18 177 6.4 11.3 0.00 0.00 0.00 64 1023.0
20260830202718 18 236 8.0 12.9 0.00 0.00 0.00 65 1023.0
20260830202214 18 186 4.8 9.7 0.00 0.00 0.00 66 1022.9
20260830201713 18 213 6.4 8.0 0.00 0.00 0.00 66 1023.1
20260830201208 18 217 11.3 14.5 0.00 0.00 0.00 65 1023.1
20260830200703 18 162 3.2 11.3 0.00 0.00 0.00 64 1023.2
20260830200202 18 198 6.4 9.7 0.00 0.00 0.00 64 1023.4
20260830195658 18 185 11.3 12.9 0.00 0.00 0.00 66 1023.2
20260830195156 18 171 6.4 9.7 0.00 0.00 0.00 67 1023.2
20260830194655 18 230 6.4 9.7 0.00 0.00 0.00 65 1023.3
20260830194155 18 224 6.4 9.7 0.00 0.00 0.00 66 1023.3
20260830193650 18 248 8.0 12.9 0.00 0.00 0.00 67 1023.5
20260830193150 18 180 6.4 9.7 0.00 0.00 0.00 66 1023.3
20260830192646 18 183 6.4 12.9 0.00 0.00 0.00 67 1023.2
20260830192140 18 243 9.7 11.3 0.00 0.00 0.00 66 1023.4
20260830191636 17 228 8.0 9.7 0.00 0.00 0.00 68 1023.3
20260830191132 18 249 6.4 11.3 0.00 0.00 0.00 67 1023.3
20260830190627 17 200 3.2 8.0 0.00 0.00 0.00 68 1023.4
20260830190122 17 236 3.2 8.0 0.00 0.00 0.00 69 1023.4
20260830185620 17 230 11.3 12.9 0.00 0.00 0.00 69 1023.3
20260830185116 17 227 6.4 9.7 0.00 0.00 0.00 69 1023.4
20260830184615 17 228 4.8 8.0 0.00 0.00 0.00 69 1023.4
20260830184109 17 218 4.8 9.7 0.00 0.00 0.00 70 1023.5
20260830183604 17 207 8.0 11.3 0.00 0.00 0.00 69 1023.5
20260830183100 17 170 4.8 8.0 0.00 0.00 0.00 70 1023.3
20260830182555 16 262 4.8 9.7 0.00 0.00 0.00 72 1023.3
20260830182052 16 188 3.2 8.0 0.00 0.00 0.00 71 1023.7
20260830181548 16 218 4.8 9.7 0.00 0.00 0.00 71 1023.5
20260830181047 17 226 8.0 12.9 0.00 0.00 0.00 70 1023.5
20260830180546 16 187 8.0 14.5 0.00 0.00 0.00 72 1023.5
20260830180046 17 176 3.2 8.0 0.00 0.00 0.00 70 1023.3
20260830175545 16 180 4.8 11.3 0.00 0.00 0.00 72 1023.6
20260830175040 16 167 6.4 9.7 0.00 0.00 0.00 72 1023.4
20260830174536 16 209 4.8 9.7 0.00 0.00 0.00 74 1023.3
20260830174031 16 132 3.2 8.0 0.00 0.00 0.00 74 1023.7
20260830173527 16 228 8.0 11.3 0.00 0.00 0.00 73 1023.7
20260830173021 16 237 9.7 17.7 0.00 0.00 0.00 73 1023.5
20260830172518 16 189 3.2 8.0 0.00 0.00 0.00 73 1023.5
20260830172014 16 176 4.8 8.0 0.00 0.00 0.00 75 1023.4
20260830171509 15 204 4.8 16.1 0.00 0.00 0.00 75 1023.5
20260830171009 16 193 4.8 9.7 0.00 0.00 0.00 74 1023.6
20260830170503 15 222 3.2 8.0 0.00 0.00 0.00 75 1023.4
20260830170001 15 197 4.8 9.7 0.00 0.00 0.00 77 1023.4
20260830165458 15 204 4.8 14.5 0.00 0.00 0.00 76 1023.2
20260830164953 15 150 4.8 9.7 0.00 0.00 0.00 77 1023.5
20260830164449 15 221 12.9 20.9 0.00 0.00 0.00 76 1023.5
20260830163945 15 194 4.8 4.8 0.00 0.00 0.00 77 1023.5
20260830163442 15 214 4.8 8.0 0.00 0.00 0.00 77 1023.2
20260830162941 15 194 1.6 3.2 0.00 0.00 0.00 78 1023.2
20260830162437 15 202 4.8 9.7 0.00 0.00 0.00 78 1023.4
20260830161937 15 161 1.6 8.0 0.00 0.00 0.00 78 1023.5
20260830161431 15 218 3.2 8.0 0.00 0.00 0.00 77 1023.5
20260830160926 15 133 11.3 16.1 0.00 0.00 0.00 77 1023.5
20260830160423 15 193 6.4 9.7 0.00 0.00 0.00 77 1023.6
20260830155917 15 226 6.4 11.3 0.00 0.00 0.00 77 1023.4
20260830155414 14 180 3.2 3.2 0.00 0.00 0.00 77 1023.4
20260830154908 15 222 4.8 8.0 0.00 0.00 0.00 77 1023.4
20260830154404 15 161 0.0 8.0 0.00 0.00 0.00 78 1023.6
20260830153901 15 202 8.0 11.3 0.00 0.00 0.00 77 1023.4
20260830153356 15 193 3.2 8.0 0.00 0.00 0.00 77 1023.3
20260830152855 15 111 1.6 3.2 0.00 0.00 0.00 78 1023.5
20260830152350 15 144 1.6 3.2 0.00 0.00 0.00 78 1023.1
20260830151844 14 112 0.0 3.2 0.00 0.00 0.00 78 1023.3
20260830151343 14 108 1.6 4.8 0.00 0.00 0.00 78 1023.2
20260830150839 14 232 4.8 8.0 0.00 0.00 0.00 78 1023.5
20260830150338 14 115 1.6 4.8 0.00 0.00 0.00 78 1023.5
20260830145833 14 110 0.0 4.8 0.00 0.00 0.00 79 1023.5
20260830145328 13 179 0.0 3.2 0.00 0.00 0.00 80 1023.5
20260830144823 13 207 3.2 3.2 0.00 0.00 0.00 80 1023.4
20260830144319 13 158 0.0 1.6 0.00 0.00 0.00 81 1023.3
20260830143815 13 155 0.0 4.8 0.00 0.00 0.00 81 1023.5
20260830143314 13 200 1.6 3.2 0.00 0.00 0.00 84 1023.4
20260830142809 12 156 0.0 0.0 0.00 0.00 0.00 86 1023.2
20260830142305 12 153 0.0 0.0 0.00 0.00 0.00 86 1023.2
20260830141759 12 145 0.0 0.0 0.00 0.00 0.00 87 1023.2
20260830141254 12 149 0.0 0.0 0.00 0.00 0.00 88 1023.1
20260830140749 12 149 0.0 0.0 0.00 0.00 0.00 88 1022.8
20260830140249 12 151 0.0 0.0 0.00 0.00 0.00 88 1023.0
20260830135744 12 141 0.0 0.0 0.00 0.00 0.00 87 1023.0
20260830135239 12 138 0.0 0.0 0.00 0.00 0.00 87 1022.7
20260830134735 12 151 0.0 0.0 0.00 0.00 0.00 87 1023.0
20260830134230 12 150 0.0 0.0 0.00 0.00 0.00 86 1022.8
20260830133726 12 152 0.0 0.0 0.00 0.00 0.00 86 1022.9
20260830133221 12 152 0.0 0.0 0.00 0.00 0.00 86 1022.9
20260830132716 12 152 0.0 1.6 0.00 0.00 0.00 87 1022.7
20260830132212 12 152 0.0 1.6 0.00 0.00 0.00 87 1022.8
20260830131712 12 153 0.0 0.0 0.00 0.00 0.00 87 1022.9
20260830131211 12 146 1.6 3.2 0.00 0.00 0.00 87 1023.1
20260830130706 12 151 0.0 1.6 0.00 0.00 0.00 87 1022.9
20260830130206 12 154 0.0 1.6 0.00 0.00 0.00 87 1022.8
20260830125706 12 152 0.0 1.6 0.00 0.00 0.00 87 1022.8
20260830125201 12 151 0.0 0.0 0.00 0.00 0.00 87 1022.8
20260830124658 12 152 0.0 0.0 0.00 0.00 0.00 87 1022.6
20260830124154 12 162 1.6 1.6 0.00 0.00 0.00 87 1022.8
20260830123651 12 146 0.0 0.0 0.00 0.00 0.00 87 1022.7
20260830123146 12 147 0.0 0.0 0.00 0.00 0.00 87 1022.7
20260830122644 12 144 0.0 0.0 0.00 0.00 0.00 87 1022.8
20260830122139 12 145 0.0 0.0 0.00 0.00 0.00 87 1022.8
20260830121635 12 149 0.0 0.0 0.00 0.00 0.00 87 1022.9
20260830121134 12 148 0.0 0.0 0.00 0.00 0.00 87 1023.1
20260830120629 12 148 0.0 0.0 0.00 0.00 0.00 87 1022.9
20260830120125 12 148 0.0 0.0 0.00 0.00 0.00 86 1022.9
20260830115621 13 145 0.0 0.0 0.00 0.00 0.00 86 1022.8
20260830115116 13 150 0.0 0.0 0.00 0.00 0.00 86 1022.9
20260830114613 13 158 0.0 0.0 0.00 0.00 0.00 86 1022.7
20260830114112 13 146 0.0 1.6 0.00 0.00 0.00 86 1023.0
20260830113608 13 146 0.0 1.6 0.00 0.00 0.00 86 1022.7
20260830113103 13 152 0.0 0.0 0.00 0.00 0.00 86 1022.9
20260830112559 13 143 0.0 1.6 0.00 0.00 0.00 86 1022.7
20260830112055 13 145 0.0 1.6 0.00 0.00 0.00 86 1022.7
20260830111551 13 149 0.0 1.6 0.00 0.00 0.00 86 1022.5
20260830111047 13 147 0.0 0.0 0.00 0.00 0.00 86 1022.8
20260830110546 13 127 0.0 0.0 0.00 0.00 0.00 86 1022.7
20260830110042 13 152 0.0 0.0 0.00 0.00 0.00 85 1022.6
20260830105537 13 154 0.0 1.6 0.00 0.00 0.00 85 1022.8
20260830105033 13 135 0.0 1.6 0.00 0.00 0.00 86 1022.6
20260830104529 13 140 0.0 1.6 0.00 0.00 0.00 85 1022.9
20260830104025 13 151 0.0 0.0 0.00 0.00 0.00 85 1022.9
20260830103520 13 155 0.0 0.0 0.00 0.00 0.00 86 1022.8
20260830103014 13 156 0.0 1.6 0.00 0.00 0.00 86 1022.9
20260830102514 13 149 0.0 0.0 0.00 0.00 0.00 86 1022.8
20260830102009 13 151 0.0 0.0 0.00 0.00 0.00 86 1022.7
20260830101505 13 145 0.0 1.6 0.00 0.00 0.00 85 1022.8
20260830101004 13 191 1.6 1.6 0.00 0.00 0.00 85 1022.8
20260830100504 13 154 1.6 1.6 0.00 0.00 0.00 84 1022.7
20260830100002 13 144 1.6 1.6 0.00 0.00 0.00 84 1022.5
20260830095458 13 162 0.0 1.6 0.00 0.00 0.00 83 1022.4
20260830094954 13 147 0.0 0.0 0.00 0.00 0.00 83 1022.4
20260830094450 13 160 0.0 0.0 0.00 0.00 0.00 83 1022.6
20260830093945 13 151 0.0 1.6 0.00 0.00 0.00 83 1022.7
20260830093440 13 157 0.0 1.6 0.00 0.00 0.00 82 1022.5
20260830092936 13 158 0.0 3.2 0.00 0.00 0.00 83 1022.5
20260830092431 13 156 0.0 0.0 0.00 0.00 0.00 83 1022.4
20260830091929 13 145 0.0 1.6 0.00 0.00 0.00 83 1022.4
20260830091428 13 149 0.0 1.6 0.00 0.00 0.00 83 1022.5
20260830090927 13 152 0.0 1.6 0.00 0.00 0.00 83 1022.5
20260830090422 13 152 0.0 0.0 0.00 0.00 0.00 83 1022.6
20260830085918 13 152 0.0 0.0 0.00 0.00 0.00 83 1022.5
20260830085412 13 150 0.0 0.0 0.00 0.00 0.00 83 1022.7
20260830084908 13 158 0.0 0.0 0.00 0.00 0.00 83 1022.5
20260830084403 13 159 0.0 1.6 0.00 0.00 0.00 83 1022.6
20260830083859 13 151 0.0 0.0 0.00 0.00 0.00 82 1022.5
20260830083355 13 156 0.0 0.0 0.00 0.00 0.00 82 1022.6
20260830082854 13 150 0.0 1.6 0.00 0.00 0.00 82 1022.5
20260830082349 13 160 0.0 1.6 0.00 0.00 0.00 82 1022.5
20260830081844 13 151 1.6 1.6 0.00 0.00 0.00 83 1022.6
20260830081344 13 158 0.0 0.0 0.00 0.00 0.00 83 1022.4
20260830080838 13 156 0.0 0.0 0.00 0.00 0.00 83 1022.4
20260830080330 13 110 1.6 4.8 0.00 0.00 0.00 84 1022.5
20260830075828 13 152 0.0 0.0 0.00 0.00 0.00 84 1022.4
20260830075324 13 154 0.0 0.0 0.00 0.00 0.00 83 1022.6
20260830074819 13 157 0.0 0.0 0.00 0.00 0.00 84 1022.4
20260830074314 13 149 0.0 0.0 0.00 0.00 0.00 84 1022.4
20260830073810 13 148 0.0 0.0 0.00 0.00 0.00 84 1022.5
20260830073307 13 156 0.0 0.0 0.00 0.00 0.00 83 1022.3
20260830072806 13 112 0.0 1.6 0.00 0.00 0.00 82 1022.3
20260830072306 14 167 0.0 3.2 0.00 0.00 0.00 82 1022.4
20260830071801 14 168 0.0 3.2 0.00 0.00 0.00 81 1022.2
20260830071256 14 159 1.6 4.8 0.00 0.00 0.00 80 1022.2
20260830070755 14 193 3.2 9.7 0.00 0.00 0.00 80 1022.2
20260830070250 14 173 1.6 8.0 0.00 0.00 0.00 81 1022.1
20260830065749 14 172 1.6 3.2 0.00 1.93 1.93 82 1022.4
20260830065243 14 183 3.2 4.8 0.00 1.93 1.93 82 1022.2
20260830064741 15 193 3.2 3.2 0.00 1.93 1.93 81 1022.3
20260830064238 15 164 3.2 3.2 0.00 1.93 1.93 80 1022.1
20260830063731 15 172 3.2 8.0 0.00 1.93 1.93 79 1022.0
20260830063230 15 204 1.6 9.7 0.00 1.93 1.93 79 1022.1
20260830062725 15 197 1.6 8.0 0.00 1.93 1.93 79 1022.2
20260830062215 15 165 3.2 4.8 0.00 1.93 1.93 79 1022.1
20260830061714 15 194 6.4 8.0 0.00 1.93 1.93 78 1022.3
20260830061210 15 176 3.2 8.0 0.00 1.93 1.93 78 1021.9
20260830060707 15 147 4.8 11.3 0.00 1.93 1.93 79 1022.3
20260830060203 15 167 0.0 3.2 0.00 1.93 1.93 79 1021.9
20260830055657 15 222 1.6 3.2 0.00 1.93 1.93 79 1022.1
20260830055154 15 170 4.8 11.3 0.00 1.93 1.93 78 1022.2
20260830054649 15 165 1.6 4.8 0.00 1.93 1.93 78 1022.3
20260830054143 15 197 4.8 4.8 0.00 1.93 1.93 78 1022.1
20260830053640 15 165 1.6 9.7 0.00 1.93 1.93 76 1022.1
20260830053139 15 207 4.8 8.0 0.00 1.93 1.93 75 1022.2
20260830052634 15 207 1.6 8.0 0.00 1.93 1.93 76 1022.1
20260830052130 15 191 1.6 8.0 0.00 1.93 1.93 76 1022.0
20260830051624 15 150 6.4 9.7 0.00 1.93 1.93 75 1022.1
20260830051121 16 175 9.7 16.1 0.00 1.93 1.93 75 1022.0
20260830050618 16 203 8.0 14.5 0.00 1.93 1.93 74 1021.8
20260830050114 16 167 6.4 12.9 0.00 1.93 1.93 75 1021.9
20260830045607 16 177 6.4 12.9 0.00 1.93 1.93 75 1021.9
20260830045103 16 208 3.2 9.7 0.00 1.93 1.93 75 1021.8
20260830044602 16 213 4.8 8.0 0.00 1.93 1.93 74 1021.9
20260830044057 16 180 4.8 8.0 0.00 1.93 1.93 73 1021.7
20260830043552 16 212 8.0 14.5 0.00 1.93 1.93 72 1021.8
20260830043051 16 157 6.4 14.5 0.00 1.93 1.93 73 1021.9
20260830042549 16 123 6.4 12.9 0.00 1.93 1.93 73 1021.8
20260830042044 16 186 8.0 11.3 0.00 1.93 1.93 74 1021.9
20260830041543 16 188 6.4 9.7 0.00 1.93 1.93 74 1021.9
20260830041043 16 182 1.6 3.2 0.00 1.93 1.93 73 1021.3
20260830040538 16 177 1.6 4.8 0.00 1.93 1.93 72 1021.5
20260830040034 16 160 0.0 11.3 0.00 1.93 1.93 71 1021.6
20260830035531 16 209 6.4 8.0 0.00 1.93 1.93 72 1021.4
20260830035027 16 168 1.6 3.2 0.00 1.93 1.93 72 1021.3
20260830034523 16 190 4.8 8.0 0.00 1.93 1.93 72 1021.3
20260830034021 16 204 4.8 8.0 0.00 1.93 1.93 72 1021.0
20260830033517 16 190 6.4 11.3 0.00 1.93 1.93 71 1021.1
20260830033012 16 197 3.2 4.8 0.00 1.93 1.93 72 1020.9
20260830032511 16 173 3.2 8.0 0.00 1.93 1.93 70 1021.0
20260830032007 16 181 1.6 4.8 0.00 1.93 1.93 70 1020.8
20260830031502 16 158 1.6 4.8 0.00 1.93 1.93 70 1020.7
20260830030957 16 199 3.2 8.0 0.00 1.93 1.93 71 1020.8
20260830030453 16 156 3.2 3.2 0.00 1.93 1.93 72 1020.8
20260830025952 17 164 1.6 3.2 0.00 1.93 1.93 71 1020.7
20260830025447 17 225 4.8 8.0 0.00 1.93 1.93 71 1020.8
20260830024946 17 169 0.0 3.2 0.00 1.93 1.93 70 1020.6
20260830024442 17 104 0.0 3.2 0.00 1.93 1.93 68 1020.8
20260830023939 17 155 8.0 12.9 0.00 1.93 1.93 68 1020.5
20260830023438 17 182 6.4 8.0 0.00 1.93 1.93 68 1020.4
20260830022937 17 126 1.6 8.0 0.00 1.93 1.93 68 1020.7
20260830022432 17 179 9.7 14.5 0.00 1.93 1.93 68 1020.5
20260830021928 17 173 3.2 3.2 0.00 1.93 1.93 68 1020.5
20260830021427 17 193 4.8 9.7 0.00 1.93 1.93 67 1020.5